TimeEST,TemperatureF,Dew PointF,Humidity,Sea Level PressureIn,VisibilityMPH,Wind Direction,Wind SpeedMPH,Gust SpeedMPH,PrecipitationIn,Events,Conditions,WindDirDegrees,DateUTC
12:15 AM,19.2,9.0,64,30.50,10.0,NNW,11.5,-,N/A,,Scattered Clouds,340,2013-11-24 05:15:00
12:35 AM,18.9,8.6,64,30.50,10.0,NNW,10.4,-,N/A,,Clear,330,2013-11-24 05:35:00
12:55 AM,18.5,8.4,65,30.50,10.0,NW,11.5,-,N/A,,Clear,320,2013-11-24 05:55:00
1:15 AM,18.1,8.4,66,30.51,10.0,NNW,10.4,17.3,N/A,,Clear,330,2013-11-24 06:15:00
1:35 AM,17.6,8.6,68,30.51,10.0,NNW,10.4,-,N/A,,Clear,330,2013-11-24 06:35:00
1:55 AM,17.4,9.1,70,30.52,10.0,NW,9.2,-,N/A,,Clear,310,2013-11-24 06:55:00
2:15 AM,17.2,9.1,71,30.52,10.0,NW,9.2,-,N/A,,Clear,310,2013-11-24 07:15:00
2:35 AM,16.7,9.0,72,30.53,10.0,WNW,8.1,16.1,N/A,,Clear,300,2013-11-24 07:35:00
2:55 AM,16.5,9.1,73,30.53,10.0,NW,6.9,-,N/A,,Clear,310,2013-11-24 07:55:00
3:15 AM,16.5,9.1,73,30.53,10.0,WNW,6.9,-,N/A,,Clear,300,2013-11-24 08:15:00
3:35 AM,16.0,9.1,74,30.52,10.0,NW,8.1,-,N/A,,Clear,310,2013-11-24 08:35:00
3:55 AM,15.6,9.0,75,30.52,10.0,NW,6.9,-,N/A,,Clear,310,2013-11-24 08:55:00
4:15 AM,15.3,8.8,76,30.53,10.0,WNW,6.9,-,N/A,,Clear,300,2013-11-24 09:15:00
4:35 AM,15.3,8.6,75,30.53,10.0,WNW,5.8,-,N/A,,Clear,300,2013-11-24 09:35:00
4:55 AM,15.3,8.6,75,30.54,10.0,WNW,8.1,-,N/A,,Clear,290,2013-11-24 09:55:00
5:15 AM,15.1,8.6,76,30.55,10.0,WNW,6.9,-,N/A,,Clear,290,2013-11-24 10:15:00
5:35 AM,14.9,8.6,76,30.56,10.0,WNW,6.9,-,N/A,,Clear,300,2013-11-24 10:35:00
5:55 AM,14.9,8.4,76,30.56,10.0,NW,6.9,-,N/A,,Clear,310,2013-11-24 10:55:00
6:15 AM,14.9,8.2,75,30.56,10.0,WNW,5.8,-,N/A,,Clear,300,2013-11-24 11:15:00
7:20 AM,14.0,8.6,79,30.57,10.0,WNW,4.6,-,N/A,,Clear,290,2013-11-24 12:20:00
7:47 AM,14.0,8.6,79,30.58,10.0,West,4.6,-,N/A,,Clear,280,2013-11-24 12:47:00
8:47 AM,17.6,10.4,73,30.60,10.0,WNW,6.9,-,N/A,,Clear,300,2013-11-24 13:47:00
9:47 AM,19.4,8.6,63,30.63,10.0,NNW,12.7,-,N/A,,Clear,330,2013-11-24 14:47:00
10:47 AM,21.2,5.0,50,30.63,10.0,NW,12.7,-,N/A,,Partly Cloudy,320,2013-11-24 15:47:00
11:47 AM,23.0,6.8,50,30.61,10.0,NW,5.8,-,N/A,,Mostly Cloudy,320,2013-11-24 16:47:00
12:47 PM,24.8,6.8,46,30.59,10.0,NW,13.8,-,N/A,,Mostly Cloudy,310,2013-11-24 17:47:00
1:50 PM,24.8,6.8,46,30.57,10.0,WNW,8.1,-,N/A,,Mostly Cloudy,290,2013-11-24 18:50:00
2:50 PM,24.8,8.6,50,30.56,10.0,WNW,6.9,-,N/A,,Mostly Cloudy,300,2013-11-24 19:50:00
3:50 PM,24.8,8.6,50,30.56,10.0,NW,8.1,-,N/A,,Mostly Cloudy,320,2013-11-24 20:50:00
4:50 PM,23.0,10.4,59,30.56,10.0,WNW,6.9,-,N/A,,Mostly Cloudy,300,2013-11-24 21:50:00
5:50 PM,21.2,10.4,63,30.55,10.0,NW,4.6,-,N/A,,Mostly Cloudy,310,2013-11-24 22:50:00
6:35 PM,21.0,10.4,64,30.56,10.0,North,-9999.0,-,N/A,,Clear,0,2013-11-24 23:35:00
6:50 PM,21.2,10.4,63,30.55,10.0,Calm,Calm,-,N/A,,Clear,0,2013-11-24 23:50:00
6:55 PM,20.1,10.8,67,30.55,10.0,North,-9999.0,-,N/A,,Clear,0,2013-11-24 23:55:00
7:15 PM,19.4,10.4,68,30.55,10.0,North,-9999.0,-,N/A,,Clear,0,2013-11-25 00:15:00
7:35 PM,19.4,11.1,70,30.55,10.0,North,-9999.0,-,N/A,,Clear,0,2013-11-25 00:35:00
7:55 PM,18.3,11.8,76,30.55,10.0,North,-9999.0,-,N/A,,Clear,0,2013-11-25 00:55:00
8:15 PM,16.7,10.9,78,30.54,10.0,North,-9999.0,-,N/A,,Clear,0,2013-11-25 01:15:00
8:35 PM,16.7,12.2,82,30.53,10.0,North,-9999.0,-,N/A,,Clear,0,2013-11-25 01:35:00
8:55 PM,16.7,11.7,81,30.53,10.0,SSW,3.5,-,N/A,,Clear,210,2013-11-25 01:55:00
9:15 PM,17.1,11.8,80,30.53,10.0,SW,4.6,-,N/A,,Clear,220,2013-11-25 02:15:00
9:35 PM,17.1,12.4,82,30.52,10.0,SW,3.5,-,N/A,,Clear,230,2013-11-25 02:35:00
9:55 PM,16.5,12.6,84,30.52,10.0,Calm,Calm,-,N/A,,Clear,0,2013-11-25 02:55:00
10:15 PM,17.2,11.8,79,30.52,10.0,North,-9999.0,-,N/A,,Clear,0,2013-11-25 03:15:00
10:35 PM,16.5,12.6,84,30.52,10.0,Calm,Calm,-,N/A,,Clear,0,2013-11-25 03:35:00
10:55 PM,16.7,12.2,82,30.52,10.0,SW,3.5,-,N/A,,Clear,230,2013-11-25 03:55:00
11:15 PM,15.8,12.0,85,30.52,10.0,SW,3.5,-,N/A,,Clear,230,2013-11-25 04:15:00
11:35 PM,15.3,11.7,86,30.52,10.0,SW,3.5,-,N/A,,Clear,220,2013-11-25 04:35:00
11:55 PM,15.3,11.3,84,30.51,10.0,North,-9999.0,-,N/A,,Clear,0,2013-11-25 04:55:00